STARLINK-34451

Last updated on Thu Jul 03 2025 00:02:07 GMT+0000 (Coordinated Universal Time)

1 64433U 25129X 25183.58335648 -.01562254 00000+0 -18548-1 0 9993 2 64433 69.9998 351.5281 0003411 265.8749 51.7600 15.63977609 3529
UTC large
Height (km)
Speed (km/s)
/
Latitude / Longitude
Inclination (degrees)
Orbital Period (minutes)
Azimuth
Elevation
Range (km)
Doppler Factor

Next 0 passes for location: London (51.5072 / 0.1276)

Sorry there are no passes over London.